Weather History for KDIK - September, 2014

Change the Weather History Date:

Thursday, September 4, 2014

  Actual Average Record
Temperature  
Mean Temperature 52 °F 62 °F  
Max Temperature 64 °F 77 °F 100 °F (1960)
Min Temperature 40 °F 48 °F 31 °F (1956)
Degree Days  
Heating Degree Days 13 5  
Month to date heating degree days 21 18  
Since 1 July heating degree days 122 104  
Cooling Degree Days 0 2  
Month to date cooling degree days 0 10  
Year to date cooling degree days 232 396  
Growing Degree Days 4 (Base 50)    
Moisture  
Dew Point 47 °F    
Average Humidity 73    
Maximum Humidity 93    
Minimum Humidity 52    
Precipitation  
Precipitation 0.00 in 0.05 in 1.62 in (1971)
Month to date precipitation 0.08 0.20  
Year to date precipitation 19.85 12.49  
Sea Level Pressure  
Sea Level Pressure 29.89 in    
Wind  
Wind Speed 18 mph (WNW)    
Max Wind Speed 33 mph    
Max Gust Speed 42 mph    
Visibility 10 miles    
Events      
T = Trace of Precipitation, MM = Missing Value Source: NWS Daily Summary

Daily Weather History Graph

Daily Weather History Graph

Search for Another Location

Airport or City:

Trip Planner

Search our weather history database for the weather conditions in past years. The results will help you decide how hot, cold, wet, or windy it might be!

Date:

Astronomy

Sep. 04, 2014 Rise Set
Actual Time 6:14 AM MDT 7:24 PM MDT
Civil Twilight 5:43 AM MDT 7:55 PM MDT
Nautical Twilight 5:06 AM MDT 8:33 PM MDT
Astronomical Twilight 4:26 AM MDT 9:12 PM MDT
Moon 4:15 PM MDT (9/4) 12:56 AM MDT (9/4)
Length of Visible Light 14h 12m
Length of Day
13h 09m
Waxing Gibbous, 75% of the Moon is Illuminated
Sep 4
Waxing Gibbous
Sep 8
Full
Sep 15
Last Quarter
Sep 24
New
Oct 1
First Quarter

Hourly Weather History & Observations

Time (MDT) Temp. Windchill Dew Point Humidity Pressure Visibility Wind Dir Wind Speed Gust Speed Precip Events Conditions
12:19 AM 61.0 °F - 57.0 °F 87% 29.71 in 10.0 mi NNW 12.7 mph - N/A   Mostly Cloudy
12:56 AM 60.1 °F - 55.9 °F 86% 29.70 in 10.0 mi WNW 9.2 mph - N/A   Overcast
1:11 AM 59.0 °F - 55.9 °F 90% 29.74 in 10.0 mi WNW 15.0 mph - N/A   Overcast
1:33 AM 57.0 °F - 54.0 °F 89% 29.74 in 10.0 mi WNW 19.6 mph 26.5 mph N/A   Overcast
1:56 AM 55.9 °F - 53.1 °F 90% 29.71 in 10.0 mi WNW 20.7 mph 29.9 mph N/A   Overcast
2:14 AM 55.0 °F - 52.0 °F 89% 29.75 in 10.0 mi WNW 16.1 mph - N/A   Scattered Clouds
2:56 AM 54.0 °F - 52.0 °F 93% 29.73 in 10.0 mi WNW 12.7 mph - N/A   Mostly Cloudy
3:25 AM 54.0 °F - 52.0 °F 93% 29.79 in 10.0 mi West 13.8 mph - N/A   Mostly Cloudy
3:56 AM 53.1 °F - 51.1 °F 93% 29.76 in 10.0 mi West 16.1 mph - N/A   Mostly Cloudy
4:56 AM 51.1 °F - 48.9 °F 92% 29.78 in 10.0 mi West 13.8 mph - N/A   Clear
5:56 AM 50.0 °F - 44.1 °F 80% 29.81 in 10.0 mi West 20.7 mph 27.6 mph N/A   Clear
6:56 AM 48.9 °F - 43.0 °F 80% 29.85 in 10.0 mi West 18.4 mph - N/A   Clear
7:56 AM 51.1 °F - 44.1 °F 77% 29.86 in 10.0 mi WNW 17.3 mph - N/A   Clear
8:56 AM 55.0 °F - 45.0 °F 69% 29.87 in 10.0 mi West 28.8 mph 39.1 mph N/A   Scattered Clouds
9:20 AM 55.9 °F - 45.0 °F 67% 29.90 in 10.0 mi West 24.2 mph 31.1 mph N/A   Mostly Cloudy
9:56 AM 57.0 °F - 46.0 °F 67% 29.88 in 10.0 mi WNW 26.5 mph 34.5 mph N/A   Overcast
10:34 AM 57.9 °F - 46.0 °F 65% 29.91 in 10.0 mi WNW 26.5 mph 34.5 mph N/A   Mostly Cloudy
10:56 AM 59.0 °F - 45.0 °F 60% 29.89 in 10.0 mi WNW 28.8 mph 34.5 mph N/A   Mostly Cloudy
11:56 AM 60.1 °F - 46.0 °F 60% 29.91 in 10.0 mi WNW 27.6 mph 39.1 mph N/A   Mostly Cloudy
12:56 PM 63.0 °F - 45.0 °F 52% 29.93 in 10.0 mi WNW 24.2 mph 36.8 mph N/A   Mostly Cloudy
1:56 PM 63.0 °F - 45.0 °F 52% 29.95 in 10.0 mi NW 25.3 mph 34.5 mph N/A   Mostly Cloudy
2:56 PM 63.0 °F - 44.1 °F 50% 29.99 in 10.0 mi NW 24.2 mph 36.8 mph N/A   Overcast
3:56 PM 63.0 °F - 44.1 °F 50% 30.00 in 10.0 mi NW 27.6 mph 33.4 mph N/A   Mostly Cloudy
4:56 PM 61.0 °F - 44.1 °F 54% 30.04 in 10.0 mi NW 24.2 mph 34.5 mph N/A   Scattered Clouds
5:56 PM 59.0 °F - 43.0 °F 55% 30.06 in 10.0 mi NNW 20.7 mph 31.1 mph N/A   Clear
6:56 PM 55.9 °F - 44.1 °F 64% 30.09 in 10.0 mi NW 18.4 mph 24.2 mph N/A   Clear
9:56 PM 46.0 °F 43.9 °F 42.1 °F 86% 30.18 in 10.0 mi WNW 4.6 mph - N/A   Clear
10:56 PM 46.0 °F 43.1 °F 43.0 °F 89% 30.19 in 10.0 mi NW 5.8 mph - N/A   Clear
11:56 PM 42.1 °F 37.1 °F 39.9 °F 92% 30.21 in 10.0 mi West 8.1 mph - N/A   Clear